17-02-2023, 00:00:01,    186,    0.1,    8.3,   0.00,   0.00, 1015.5,    0.0, -999.0
17-02-2023, 00:00:10,    182,    0.9,    8.3,   0.00,   0.00, 1015.6,    0.0, -999.0
17-02-2023, 00:00:20,    205,    0.6,    8.3,   0.00,   0.00, 1015.6,    0.1, -999.0
17-02-2023, 00:00:30,    274,    0.6,    8.3,   0.00,   0.00, 1015.6,    0.3, -999.0
17-02-2023, 00:00:41,    274,    0.2,    8.3,   0.00,   0.00, 1015.5,    0.0, -999.0
17-02-2023, 00:00:50,    194,    0.3,    8.2,   0.00,   0.00, 1015.5,    0.0, -999.0
17-02-2023, 00:01:00,    195,    0.6,    8.4,   0.00,   0.00, 1015.6,    0.0, -999.0
17-02-2023, 00:01:10,    197,    0.3,    8.4,   0.00,   0.00, 1015.6,    0.2, -999.0
17-02-2023, 00:01:20,    228,    1.9,    8.4,   0.00,   0.00, 1015.6,    0.1, -999.0
17-02-2023, 00:01:30,    208,    2.3,    8.3,   0.00,   0.00, 1015.6,    0.0, -999.0
17-02-2023, 00:01:40,    207,    1.8,    8.3,   0.00,   0.00, 1015.6,    0.1, -999.0
17-02-2023, 00:01:50,    231,    3.6,    8.3,   0.00,   0.00, 1015.6,    0.1, -999.0
17-02-2023, 00:02:00,    290,    2.4,    8.4,   0.00,   0.00, 1015.6,    0.1, -999.0
17-02-2023, 00:02:10,    276,    2.1,    8.4,   0.00,   0.00, 1015.6,    0.0, -999.0
17-02-2023, 00:02:20,    243,    3.6,    8.4,   0.00,   0.00, 1015.6,    0.1, -999.0
17-02-2023, 00:02:30,    260,    4.7,    8.4,   0.00,   0.00, 1015.6,    0.0, -999.0
17-02-2023, 00:02:40,    251,    3.4,    8.4,   0.00,   0.00, 1015.5,    0.1, -999.0
17-02-2023, 00:02:50,    238,    3.0,    8.4,   0.00,   0.00, 1015.6,    0.2, -999.0
17-02-2023, 00:03:00,    169,    0.5,    8.4,   0.00,   0.00, 1015.6,    0.0, -999.0
17-02-2023, 00:03:10,    235,    2.8,    8.4,   0.00,   0.00, 1015.6,    0.2, -999.0
17-02-2023, 00:03:20,    203,    1.6,    8.4,   0.00,   0.00, 1015.6,    0.1, -999.0
17-02-2023, 00:03:30,    173,    1.9,    8.4,   0.00,   0.00, 1015.6,    0.1, -999.0
17-02-2023, 00:03:40,    171,    0.1,    8.4,   0.00,   0.00, 1015.5,    0.0, -999.0
17-02-2023, 00:03:50,    209,    0.3,    8.4,   0.00,   0.00, 1015.5,    0.1, -999.0
17-02-2023, 00:04:00,    245,    2.1,    8.5,   0.00,   0.00, 1015.6,    0.2, -999.0
17-02-2023, 00:04:10,    222,    1.8,    8.5,   0.00,   0.00, 1015.6,    0.1, -999.0
17-02-2023, 00:04:20,    241,    1.5,    8.4,   0.00,   0.00, 1015.6,    0.2, -999.0
17-02-2023, 00:04:30,    244,    2.9,    8.4,   0.00,   0.00, 1015.6,    0.0, -999.0
17-02-2023, 00:04:40,    226,    2.2,    8.4,   0.00,   0.00, 1015.5,    0.1, -999.0
17-02-2023, 00:04:50,    226,    0.1,    8.4,   0.00,   0.00, 1015.5,    0.1, -999.0
17-02-2023, 00:05:00,    257,    0.5,    8.4,   0.00,   0.00, 1015.6,    0.3, -999.0
17-02-2023, 00:05:10,    225,    2.2,    8.4,   0.00,   0.00, 1015.6,    0.1, -999.0
17-02-2023, 00:05:20,    197,    2.7,    8.4,   0.00,   0.00, 1015.6,    0.3, -999.0
17-02-2023, 00:05:30,    223,    2.4,    8.4,   0.00,   0.00, 1015.6,    0.0, -999.0
17-02-2023, 00:05:40,    236,    4.4,    8.5,   0.00,   0.00, 1015.6,    0.0, -999.0
17-02-2023, 00:05:50,    219,    1.8,    8.4,   0.00,   0.00, 1015.5,    0.1, -999.0
17-02-2023, 00:06:00,    224,    2.6,    8.4,   0.00,   0.00, 1015.5,    0.1, -999.0
17-02-2023, 00:06:10,    224,    0.4,    8.4,   0.00,   0.00, 1015.6,    0.0, -999.0
17-02-2023, 00:06:20,    197,    3.3,    8.4,   0.00,   0.00, 1015.5,    0.1, -999.0
17-02-2023, 00:06:30,    230,    4.2,    8.4,   0.00,   0.00, 1015.6,    0.1, -999.0
17-02-2023, 00:06:40,    244,    2.4,    8.5,   0.00,   0.00, 1015.5,    0.0, -999.0
17-02-2023, 00:06:50,    244,    1.7,    8.5,   0.00,   0.00, 1015.6,    0.1, -999.0
17-02-2023, 00:07:00,    229,    3.4,    8.5,   0.00,   0.00, 1015.6,    0.0, -999.0
17-02-2023, 00:07:10,    195,    2.7,    8.4,   0.00,   0.00, 1015.6,    0.0, -999.0
17-02-2023, 00:07:20,    197,    0.9,    8.4,   0.00,   0.00, 1015.6,    0.0, -999.0
17-02-2023, 00:07:29,    202,    0.9,    8.4,   0.00,   0.00, 1015.6,    0.1, -999.0
17-02-2023, 00:07:40,    201,    0.5,    8.5,   0.00,   0.00, 1015.6,    0.1, -999.0
17-02-2023, 00:07:50,    201,    0.2,    8.4,   0.00,   0.00, 1015.4,    0.0, -999.0
17-02-2023, 00:08:00,    230,    3.0,    8.5,   0.00,   0.00, 1015.6,    0.2, -999.0
17-02-2023, 00:08:09,    163,    1.4,    8.5,   0.00,   0.00, 1015.6,    0.0, -999.0
17-02-2023, 00:08:20,    229,    0.1,    8.4,   0.00,   0.00, 1015.5,    0.1, -999.0
17-02-2023, 00:08:30,    234,    1.2,    8.5,   0.00,   0.00, 1015.6,    0.0, -999.0
17-02-2023, 00:08:39,    251,    2.3,    8.5,   0.00,   0.00, 1015.6,    0.0, -999.0
17-02-2023, 00:08:49,    251,    3.5,    8.6,   0.00,   0.00, 1015.6,    0.0, -999.0
17-02-2023, 00:09:00,    240,    2.7,    8.5,   0.00,   0.00, 1015.6,    0.0, -999.0
17-02-2023, 00:09:10,    259,    2.4,    8.5,   0.00,   0.00, 1015.6,    0.0, -999.0
17-02-2023, 00:09:19,    232,    3.8,    8.5,   0.00,   0.00, 1015.6,    0.1, -999.0
17-02-2023, 00:09:29,    199,    2.7,    8.5,   0.00,   0.00, 1015.6,    0.0, -999.0
17-02-2023, 00:09:40,    199,    1.6,    8.6,   0.00,   0.00, 1015.5,    0.0, -999.0
17-02-2023, 00:09:49,    225,    1.4,    8.6,   0.00,   0.00, 1015.5,    0.2, -999.0
17-02-2023, 00:09:59,    251,    1.3,    8.5,   0.00,   0.00, 1015.5,    0.1, -999.0
17-02-2023, 00:10:10,    251,    0.4,    8.5,   0.00,   0.00, 1015.5,    0.1, -999.0
17-02-2023, 00:10:19,    251,    0.0,    8.5,   0.00,   0.00, 1015.4,    0.0, -999.0
17-02-2023, 00:10:29,    196,    1.4,    8.5,   0.00,   0.00, 1015.5,    0.1, -999.0
17-02-2023, 00:10:39,    242,    4.1,    8.6,   0.00,   0.00, 1015.5,    0.0, -999.0
17-02-2023, 00:10:50,    235,    3.1,    8.6,   0.00,   0.00, 1015.6,    0.1, -999.0
17-02-2023, 00:10:59,    219,    1.3,    8.6,   0.00,   0.00, 1015.6,    0.0, -999.0
17-02-2023, 00:11:09,    217,    1.8,    8.6,   0.00,   0.00, 1015.6,    0.1, -999.0
17-02-2023, 00:11:19,    213,    0.8,    8.5,   0.00,   0.00, 1015.6,    0.1, -999.0
17-02-2023, 00:11:29,    220,    1.4,    8.5,   0.00,   0.00, 1015.6,    0.1, -999.0
17-02-2023, 00:11:39,    193,    2.2,    8.5,   0.00,   0.00, 1015.6,    0.1, -999.0
17-02-2023, 00:11:49,    218,    1.9,    8.5,   0.00,   0.00, 1015.6,    0.0, -999.0
17-02-2023, 00:11:59,    219,    0.7,    8.5,   0.00,   0.00, 1015.6,    0.1, -999.0
17-02-2023, 00:12:09,    219,    0.0,    8.4,   0.00,   0.00, 1015.5,    0.0, -999.0
17-02-2023, 00:12:19,    218,    0.0,    8.5,   0.00,   0.00, 1015.5,    0.0, -999.0
17-02-2023, 00:12:29,    213,    1.8,    8.5,   0.00,   0.00, 1015.6,    0.0, -999.0
17-02-2023, 00:12:39,    182,    1.9,    8.6,   0.00,   0.00, 1015.6,    0.2, -999.0
17-02-2023, 00:12:49,    186,    1.6,    8.5,   0.00,   0.00, 1015.6,    0.0, -999.0
17-02-2023, 00:12:59,    218,    2.7,    8.5,   0.00,   0.00, 1015.6,    0.1, -999.0
17-02-2023, 00:13:09,    220,    1.0,    8.6,   0.00,   0.00, 1015.6,    0.1, -999.0
17-02-2023, 00:13:19,    236,    1.5,    8.5,   0.00,   0.00, 1015.6,    0.0, -999.0
17-02-2023, 00:13:29,    206,    1.2,    8.6,   0.00,   0.00, 1015.6,    0.1, -999.0
17-02-2023, 00:13:39,    204,    0.6,    8.6,   0.00,   0.00, 1015.6,    0.1, -999.0
17-02-2023, 00:13:49,    204,    0.0,    8.5,   0.00,   0.00, 1015.5,    0.0, -999.0
17-02-2023, 00:13:59,    205,    0.2,    8.5,   0.00,   0.00, 1015.5,    0.0, -999.0
17-02-2023, 00:14:09,    224,    1.3,    8.5,   0.00,   0.00, 1015.6,    0.2, -999.0
17-02-2023, 00:14:19,    241,    0.8,    8.6,   0.00,   0.00, 1015.6,    0.1, -999.0
17-02-2023, 00:14:29,    241,    0.0,    8.5,   0.00,   0.00, 1015.4,    0.0, -999.0
17-02-2023, 00:14:39,    242,    0.0,    8.4,   0.00,   0.00, 1015.5,    0.0, -999.0
17-02-2023, 00:14:49,    227,    1.2,    8.6,   0.00,   0.00, 1015.6,    0.0, -999.0
17-02-2023, 00:14:59,    210,    2.1,    8.6,   0.00,   0.00, 1015.6,    0.0, -999.0
17-02-2023, 00:15:09,    201,    2.3,    8.6,   0.00,   0.00, 1015.6,    0.2, -999.0
17-02-2023, 00:15:19,    233,    4.8,    8.5,   0.00,   0.00, 1015.6,    0.0, -999.0
17-02-2023, 00:15:29,    269,    4.5,    8.6,   0.00,   0.00, 1015.6,    0.1, -999.0
17-02-2023, 00:15:39,    186,    1.6,    8.7,   0.00,   0.00, 1015.6,    0.1, -999.0
17-02-2023, 00:15:49,    262,    0.9,    8.6,   0.00,   0.00, 1015.6,    0.1, -999.0
17-02-2023, 00:15:59,    262,    0.2,    8.6,   0.00,   0.00, 1015.5,    0.0, -999.0
17-02-2023, 00:16:09,    231,    1.0,    8.6,   0.00,   0.00, 1015.6,    0.1, -999.0
17-02-2023, 00:16:19,    216,    0.2,    8.6,   0.00,   0.00, 1015.6,    0.0, -999.0
17-02-2023, 00:16:29,    211,    1.7,    8.6,   0.00,   0.00, 1015.6,    0.0, -999.0
17-02-2023, 00:16:39,    228,    1.7,    8.7,   0.00,   0.00, 1015.5,    0.0, -999.0
17-02-2023, 00:16:49,    278,    1.5,    8.7,   0.00,   0.00, 1015.5,    0.0, -999.0
17-02-2023, 00:16:59,    275,    5.1,    8.7,   0.00,   0.00, 1015.5,    0.0, -999.0
17-02-2023, 00:17:09,    228,    2.7,    8.7,   0.00,   0.00, 1015.6,    0.0, -999.0
17-02-2023, 00:17:19,    248,    3.0,    8.7,   0.00,   0.00, 1015.6,    0.0, -999.0
17-02-2023, 00:17:29,    247,    3.0,    8.7,   0.00,   0.00, 1015.5,    0.0, -999.0
17-02-2023, 00:17:38,    245,    0.3,    8.6,   0.00,   0.00, 1015.4,    0.1, -999.0
17-02-2023, 00:17:49,    235,    0.4,    8.6,   0.00,   0.00, 1015.4,    0.0, -999.0
17-02-2023, 00:17:59,    264,    0.8,    8.7,   0.00,   0.00, 1015.5,    0.1, -999.0
17-02-2023, 00:18:08,    190,    0.8,    8.6,   0.00,   0.00, 1015.4,    0.0, -999.0
17-02-2023, 00:18:18,    232,    1.9,    8.7,   0.00,   0.00, 1015.4,    0.0, -999.0
17-02-2023, 00:18:29,    224,    0.4,    8.7,   0.00,   0.00, 1015.5,    0.0, -999.0
17-02-2023, 00:18:39,    200,    1.8,    8.7,   0.00,   0.00, 1015.5,    0.1, -999.0
17-02-2023, 00:18:48,    197,    2.6,    8.7,   0.00,   0.00, 1015.5,    0.1, -999.0
17-02-2023, 00:18:59,    199,    0.7,    8.7,   0.00,   0.00, 1015.4,    0.1, -999.0
17-02-2023, 00:19:09,    303,    0.3,    8.6,   0.00,   0.00, 1015.4,    0.1, -999.0
17-02-2023, 00:19:18,    219,    2.2,    8.7,   0.00,   0.00, 1015.5,    0.1, -999.0
17-02-2023, 00:19:28,    252,    5.1,    8.7,   0.00,   0.00, 1015.5,    0.1, -999.0
17-02-2023, 00:19:39,    251,    2.9,    8.7,   0.00,   0.00, 1015.5,    0.0, -999.0
17-02-2023, 00:19:49,    258,    1.2,    8.7,   0.00,   0.00, 1015.5,    0.1, -999.0
17-02-2023, 00:19:58,    259,    1.1,    8.6,   0.00,   0.00, 1015.5,    0.1, -999.0
17-02-2023, 00:20:08,    260,    1.6,    8.6,   0.00,   0.00, 1015.5,    0.1, -999.0
17-02-2023, 00:20:19,    255,    3.7,    8.6,   0.00,   0.00, 1015.4,    0.1, -999.0
17-02-2023, 00:20:28,    217,    1.8,    8.7,   0.00,   0.00, 1015.5,    0.1, -999.0
17-02-2023, 00:20:38,    216,    2.8,    8.7,   0.00,   0.00, 1015.4,    0.1, -999.0
17-02-2023, 00:20:48,    182,    4.7,    8.7,   0.00,   0.00, 1015.5,    0.1, -999.0
17-02-2023, 00:20:58,    194,    3.3,    8.7,   0.00,   0.00, 1015.4,    0.1, -999.0
17-02-2023, 00:21:08,    208,    1.9,    8.7,   0.00,   0.00, 1015.4,    0.2, -999.0
17-02-2023, 00:21:18,    210,    1.1,    8.7,   0.00,   0.00, 1015.4,    0.0, -999.0
17-02-2023, 00:21:28,    213,    1.0,    8.6,   0.00,   0.00, 1015.4,    0.2, -999.0
17-02-2023, 00:21:38,    213,    0.8,    8.7,   0.00,   0.00, 1015.4,    0.2, -999.0
17-02-2023, 00:21:48,    213,    0.0,    8.7,   0.00,   0.00, 1015.3,    0.1, -999.0
17-02-2023, 00:21:58,    235,    1.6,    8.7,   0.00,   0.00, 1015.4,    0.0, -999.0
17-02-2023, 00:22:08,    198,    4.5,    8.8,   0.00,   0.00, 1015.4,    0.1, -999.0
17-02-2023, 00:22:18,    229,    3.4,    8.7,   0.00,   0.00, 1015.4,    0.0, -999.0
17-02-2023, 00:22:28,    184,    3.5,    8.7,   0.00,   0.00, 1015.4,    0.1, -999.0
17-02-2023, 00:22:38,    250,    3.5,    8.7,   0.00,   0.00, 1015.4,    0.0, -999.0
17-02-2023, 00:22:48,    214,    2.1,    8.8,   0.00,   0.00, 1015.4,    0.1, -999.0
17-02-2023, 00:22:58,    257,    2.6,    8.8,   0.00,   0.00, 1015.4,    0.1, -999.0
17-02-2023, 00:23:08,    257,    0.3,    8.7,   0.00,   0.00, 1015.4,    0.1, -999.0
17-02-2023, 00:23:18,    166,    0.2,    8.6,   0.00,   0.00, 1015.4,    0.0, -999.0
17-02-2023, 00:23:28,    249,    2.2,    8.7,   0.00,   0.00, 1015.4,    0.1, -999.0
17-02-2023, 00:23:38,    235,    0.9,    8.7,   0.00,   0.00, 1015.4,    0.1, -999.0
17-02-2023, 00:23:48,    185,    0.8,    8.7,   0.00,   0.00, 1015.4,    0.1, -999.0
17-02-2023, 00:23:58,    287,    1.2,    8.7,   0.00,   0.00, 1015.4,    0.1, -999.0
17-02-2023, 00:24:08,    244,    2.2,    8.7,   0.00,   0.00, 1015.5,    0.0, -999.0
17-02-2023, 00:24:18,    229,    0.7,    8.8,   0.00,   0.00, 1015.4,    0.0, -999.0
17-02-2023, 00:24:28,    186,    0.8,    8.7,   0.00,   0.00, 1015.4,    0.2, -999.0
17-02-2023, 00:24:38,    244,    1.6,    8.8,   0.00,   0.00, 1015.4,    0.0, -999.0
17-02-2023, 00:24:48,    220,    1.0,    8.8,   0.00,   0.00, 1015.4,    0.1, -999.0
17-02-2023, 00:24:58,    216,    1.0,    8.8,   0.00,   0.00, 1015.4,    0.1, -999.0
17-02-2023, 00:25:08,    220,    3.1,    8.7,   0.00,   0.00, 1015.5,    0.0, -999.0
17-02-2023, 00:25:18,    141,    1.7,    8.7,   0.00,   0.00, 1015.5,    0.2, -999.0
17-02-2023, 00:25:28,    225,    1.3,    8.7,   0.00,   0.00, 1015.4,    0.1, -999.0
17-02-2023, 00:25:38,    198,    2.3,    8.7,   0.00,   0.00, 1015.5,    0.1, -999.0
17-02-2023, 00:25:48,    216,    0.9,    8.8,   0.00,   0.00, 1015.4,    0.0, -999.0
17-02-2023, 00:25:58,    175,    2.5,    8.8,   0.00,   0.00, 1015.4,    0.1, -999.0
17-02-2023, 00:26:08,    206,    0.6,    8.8,   0.00,   0.00, 1015.4,    0.1, -999.0
17-02-2023, 00:26:18,    207,    2.0,    8.8,   0.00,   0.00, 1015.4,    0.0, -999.0
17-02-2023, 00:26:28,    269,    7.5,    8.8,   0.00,   0.00, 1015.5,    0.1, -999.0
17-02-2023, 00:26:38,    213,    5.0,    8.7,   0.00,   0.00, 1015.5,    0.2, -999.0
17-02-2023, 00:26:48,    221,    1.4,    8.7,   0.00,   0.00, 1015.4,    0.1, -999.0
17-02-2023, 00:26:58,    190,    6.3,    8.8,   0.00,   0.00, 1015.4,    0.0, -999.0
17-02-2023, 00:27:07,    218,    5.6,    8.8,   0.00,   0.00, 1015.4,    0.1, -999.0
17-02-2023, 00:27:18,    210,    2.8,    8.8,   0.00,   0.00, 1015.5,    0.2, -999.0
17-02-2023, 00:27:28,    203,    1.0,    8.8,   0.00,   0.00, 1015.4,    0.1, -999.0
17-02-2023, 00:27:38,    173,    1.1,    8.8,   0.00,   0.00, 1015.4,    0.1, -999.0
17-02-2023, 00:27:48,    254,    0.7,    8.7,   0.00,   0.00, 1015.4,    0.1, -999.0
17-02-2023, 00:27:58,    209,    0.8,    8.7,   0.00,   0.00, 1015.4,    0.1, -999.0
17-02-2023, 00:28:08,    231,    2.8,    8.8,   0.00,   0.00, 1015.5,    0.1, -999.0
17-02-2023, 00:28:17,    210,    4.1,    8.8,   0.00,   0.00, 1015.4,    0.1, -999.0
17-02-2023, 00:28:28,    201,    1.6,    8.8,   0.00,   0.00, 1015.4,    0.1, -999.0
17-02-2023, 00:28:38,    229,    2.4,    8.8,   0.00,   0.00, 1015.4,    0.1, -999.0
17-02-2023, 00:28:47,    285,    3.9,    8.8,   0.00,   0.00, 1015.4,    0.0, -999.0
17-02-2023, 00:28:57,    237,    1.9,    8.7,   0.00,   0.00, 1015.3,    0.1, -999.0
17-02-2023, 00:29:08,    269,    5.8,    8.8,   0.00,   0.00, 1015.4,    0.0, -999.0
17-02-2023, 00:29:18,    233,    6.8,    8.8,   0.00,   0.00, 1015.4,    0.0, -999.0
17-02-2023, 00:29:27,    249,    2.2,    8.8,   0.00,   0.00, 1015.4,    0.1, -999.0
17-02-2023, 00:29:37,    225,    2.7,    8.8,   0.00,   0.00, 1015.4,    0.2, -999.0
17-02-2023, 00:29:48,    232,    4.6,    8.9,   0.00,   0.00, 1015.4,    0.0, -999.0
17-02-2023, 00:29:57,    205,    2.9,    8.9,   0.00,   0.00, 1015.3,    0.1, -999.0
17-02-2023, 00:30:07,    229,    4.4,    8.8,   0.00,   0.00, 1015.4,    0.1, -999.0
17-02-2023, 00:30:18,    222,    5.5,    8.9,   0.00,   0.00, 1015.4,    0.1, -999.0
17-02-2023, 00:30:27,    243,    3.8,    8.8,   0.00,   0.00, 1015.4,    0.1, -999.0
17-02-2023, 00:30:37,    219,    0.9,    8.8,   0.00,   0.00, 1015.3,    0.0, -999.0
17-02-2023, 00:30:47,    202,    0.9,    8.8,   0.00,   0.00, 1015.4,    0.0, -999.0
17-02-2023, 00:30:58,    228,    2.9,    8.8,   0.00,   0.00, 1015.4,    0.1, -999.0
17-02-2023, 00:31:07,    219,    1.9,    8.9,   0.00,   0.00, 1015.4,    0.1, -999.0
17-02-2023, 00:31:17,    224,    1.9,    8.8,   0.00,   0.00, 1015.4,    0.0, -999.0
17-02-2023, 00:31:27,    237,    3.4,    8.9,   0.00,   0.00, 1015.4,    0.0, -999.0
17-02-2023, 00:31:37,    152,    3.2,    8.8,   0.00,   0.00, 1015.4,    0.0, -999.0
17-02-2023, 00:31:47,    238,    3.4,    8.8,   0.00,   0.00, 1015.4,    0.1, -999.0
17-02-2023, 00:31:57,    155,    1.5,    8.9,   0.00,   0.00, 1015.4,    0.1, -999.0
17-02-2023, 00:32:07,    260,    0.6,    8.8,   0.00,   0.00, 1015.3,    0.0, -999.0
17-02-2023, 00:32:17,    198,    3.2,    8.9,   0.00,   0.00, 1015.3,    0.0, -999.0
17-02-2023, 00:32:27,    250,    3.7,    8.8,   0.00,   0.00, 1015.4,    0.0, -999.0
17-02-2023, 00:32:37,    197,    3.5,    8.8,   0.00,   0.00, 1015.3,    0.1, -999.0
17-02-2023, 00:32:47,    238,    4.3,    8.8,   0.00,   0.00, 1015.4,    0.1, -999.0
17-02-2023, 00:32:57,    234,    3.7,    8.8,   0.00,   0.00, 1015.3,    0.1, -999.0
17-02-2023, 00:33:07,    223,    3.2,    8.8,   0.00,   0.00, 1015.3,    0.0, -999.0
17-02-2023, 00:33:17,    218,    1.6,    8.8,   0.00,   0.00, 1015.3,    0.1, -999.0
17-02-2023, 00:33:27,    220,    1.9,    8.8,   0.00,   0.00, 1015.3,    0.1, -999.0
17-02-2023, 00:33:37,    242,    4.9,    8.9,   0.00,   0.00, 1015.3,    0.1, -999.0
17-02-2023, 00:33:47,    248,    2.6,    8.8,   0.00,   0.00, 1015.4,    0.0, -999.0
17-02-2023, 00:33:57,    186,    1.7,    8.8,   0.00,   0.00, 1015.4,    0.0, -999.0
17-02-2023, 00:34:07,    234,    2.5,    8.8,   0.00,   0.00, 1015.3,    0.1, -999.0
17-02-2023, 00:34:17,    228,    2.4,    8.8,   0.00,   0.00, 1015.4,    0.1, -999.0
17-02-2023, 00:34:27,    231,    2.3,    8.8,   0.00,   0.00, 1015.4,    0.1, -999.0
17-02-2023, 00:34:37,    236,    3.9,    8.8,   0.00,   0.00, 1015.4,    0.1, -999.0
17-02-2023, 00:34:47,    248,    5.2,    8.8,   0.00,   0.00, 1015.4,    0.1, -999.0
17-02-2023, 00:34:57,    242,    4.3,    8.8,   0.00,   0.00, 1015.3,    0.1, -999.0
17-02-2023, 00:35:07,    202,    1.6,    8.8,   0.00,   0.00, 1015.4,    0.1, -999.0
17-02-2023, 00:35:17,    235,    2.4,    8.8,   0.00,   0.00, 1015.4,    0.1, -999.0
17-02-2023, 00:35:27,    223,    1.6,    8.7,   0.00,   0.00, 1015.4,    0.1, -999.0
17-02-2023, 00:35:37,    264,    3.5,    8.9,   0.00,   0.00, 1015.3,    0.0, -999.0
17-02-2023, 00:35:47,    224,    5.4,    8.8,   0.00,   0.00, 1015.4,    0.0, -999.0
17-02-2023, 00:35:57,    236,    5.8,    8.8,   0.00,   0.00, 1015.4,    0.2, -999.0
17-02-2023, 00:36:07,    223,    7.2,    8.8,   0.00,   0.00, 1015.4,    0.1, -999.0
17-02-2023, 00:36:17,    230,    6.4,    8.9,   0.00,   0.00, 1015.4,    0.0, -999.0
17-02-2023, 00:36:27,    234,    3.6,    8.8,   0.00,   0.00, 1015.4,    0.0, -999.0
17-02-2023, 00:36:37,    225,    2.4,    8.8,   0.00,   0.00, 1015.3,    0.1, -999.0
17-02-2023, 00:36:47,    224,    1.4,    8.8,   0.00,   0.00, 1015.4,    0.2, -999.0
17-02-2023, 00:36:57,    225,    4.6,    8.9,   0.00,   0.00, 1015.3,    0.1, -999.0
17-02-2023, 00:37:07,    231,    3.5,    8.8,   0.00,   0.00, 1015.3,    0.1, -999.0
17-02-2023, 00:37:17,    230,    3.9,    8.8,   0.00,   0.00, 1015.3,    0.1, -999.0
17-02-2023, 00:37:27,    249,    4.1,    8.8,   0.00,   0.00, 1015.4,    0.1, -999.0
17-02-2023, 00:37:37,    225,    5.2,    8.8,   0.00,   0.00, 1015.4,    0.0, -999.0
17-02-2023, 00:37:46,    178,    3.3,    8.8,   0.00,   0.00, 1015.4,    0.0, -999.0
17-02-2023, 00:37:57,    247,    5.5,    8.8,   0.00,   0.00, 1015.4,    0.0, -999.0
17-02-2023, 00:38:07,    251,    5.1,    8.9,   0.00,   0.00, 1015.3,    0.1, -999.0
17-02-2023, 00:38:16,    223,    5.1,    8.9,   0.00,   0.00, 1015.4,    0.1, -999.0
17-02-2023, 00:38:26,    223,    4.8,    8.8,   0.00,   0.00, 1015.4,    0.2, -999.0
17-02-2023, 00:38:37,    217,    3.0,    8.8,   0.00,   0.00, 1015.4,    0.2, -999.0
17-02-2023, 00:38:47,    218,    3.9,    8.9,   0.00,   0.00, 1015.3,    0.0, -999.0
17-02-2023, 00:38:56,    224,    3.1,    8.9,   0.00,   0.00, 1015.3,    0.1, -999.0
17-02-2023, 00:39:07,    231,    2.3,    8.9,   0.00,   0.00, 1015.4,    0.0, -999.0
17-02-2023, 00:39:17,    259,    3.1,    8.8,   0.00,   0.00, 1015.4,    0.1, -999.0
17-02-2023, 00:39:26,    228,    3.1,    8.8,   0.00,   0.00, 1015.3,    0.1, -999.0
17-02-2023, 00:39:36,    219,    3.5,    8.8,   0.00,   0.00, 1015.4,    0.1, -999.0
17-02-2023, 00:39:47,    269,    5.4,    8.8,   0.00,   0.00, 1015.3,    0.1, -999.0
17-02-2023, 00:39:56,    243,    5.8,    8.8,   0.00,   0.00, 1015.3,    0.1, -999.0
17-02-2023, 00:40:06,    215,    3.6,    8.8,   0.00,   0.00, 1015.4,    0.1, -999.0
17-02-2023, 00:40:16,    220,    3.9,    8.8,   0.00,   0.00, 1015.3,    0.1, -999.0
17-02-2023, 00:40:27,    257,    3.5,    8.8,   0.00,   0.00, 1015.3,    0.1, -999.0
17-02-2023, 00:40:36,    169,    0.8,    8.8,   0.00,   0.00, 1015.3,    0.1, -999.0
17-02-2023, 00:40:46,    178,    1.4,    8.8,   0.00,   0.00, 1015.3,    0.0, -999.0
17-02-2023, 00:40:56,    192,    0.3,    8.8,   0.00,   0.00, 1015.2,    0.0, -999.0
17-02-2023, 00:41:06,    247,    0.6,    8.7,   0.00,   0.00, 1015.2,    0.1, -999.0
17-02-2023, 00:41:16,    248,    0.5,    8.8,   0.00,   0.00, 1015.3,    0.0, -999.0
17-02-2023, 00:41:26,    254,    1.3,    8.9,   0.00,   0.00, 1015.4,    0.0, -999.0
17-02-2023, 00:41:36,     96,    1.0,    8.8,   0.00,   0.00, 1015.3,    0.0, -999.0
17-02-2023, 00:41:46,    258,    2.2,    8.9,   0.00,   0.00, 1015.3,    0.1, -999.0
17-02-2023, 00:41:56,    218,    4.1,    8.8,   0.00,   0.00, 1015.3,    0.1, -999.0
17-02-2023, 00:42:06,    247,    5.3,    8.8,   0.00,   0.00, 1015.3,    0.1, -999.0
17-02-2023, 00:42:16,    182,    4.3,    8.8,   0.00,   0.00, 1015.4,    0.0, -999.0
17-02-2023, 00:42:26,    235,    2.6,    8.8,   0.00,   0.00, 1015.3,    0.1, -999.0
17-02-2023, 00:42:36,    255,    4.3,    8.8,   0.00,   0.00, 1015.4,    0.0, -999.0
17-02-2023, 00:42:46,    243,    4.6,    8.8,   0.00,   0.00, 1015.4,    0.1, -999.0
17-02-2023, 00:42:56,    229,    5.1,    8.8,   0.00,   0.00, 1015.3,    0.0, -999.0
17-02-2023, 00:43:06,    231,    2.6,    8.8,   0.00,   0.00, 1015.3,    0.1, -999.0
17-02-2023, 00:43:16,    255,    5.1,    8.7,   0.00,   0.00, 1015.3,    0.1, -999.0
17-02-2023, 00:43:26,    231,    3.5,    8.8,   0.00,   0.00, 1015.4,    0.0, -999.0
17-02-2023, 00:43:36,    221,    2.6,    8.8,   0.00,   0.00, 1015.3,    0.1, -999.0
17-02-2023, 00:43:46,    206,    4.2,    8.8,   0.00,   0.00, 1015.3,    0.1, -999.0
17-02-2023, 00:43:56,    222,    3.7,    8.8,   0.00,   0.00, 1015.3,    0.1, -999.0
17-02-2023, 00:44:06,    214,    7.2,    8.8,   0.00,   0.00, 1015.3,    0.1, -999.0
17-02-2023, 00:44:16,    233,    4.9,    8.8,   0.00,   0.00, 1015.3,    0.0, -999.0
17-02-2023, 00:44:26,    221,    4.3,    8.8,   0.00,   0.00, 1015.3,    0.1, -999.0
17-02-2023, 00:44:36,    232,    3.3,    8.6,   0.00,   0.00, 1015.3,    0.0, -999.0
17-02-2023, 00:44:46,    200,    1.0,    8.7,   0.00,   0.00, 1015.3,    0.1, -999.0
17-02-2023, 00:44:56,    198,    0.7,    8.9,   0.00,   0.00, 1015.3,    0.1, -999.0
17-02-2023, 00:45:06,    290,    2.2,    8.7,   0.00,   0.00, 1015.2,    0.1, -999.0
17-02-2023, 00:45:16,    195,    0.6,    8.8,   0.00,   0.00, 1015.2,    0.1, -999.0
17-02-2023, 00:45:26,    184,    1.1,    8.8,   0.00,   0.00, 1015.3,    0.1, -999.0
17-02-2023, 00:45:36,    252,    1.7,    8.8,   0.00,   0.00, 1015.3,    0.2, -999.0
17-02-2023, 00:45:46,    240,    2.4,    8.7,   0.00,   0.00, 1015.3,    0.0, -999.0
17-02-2023, 00:45:56,    212,    2.2,    8.8,   0.00,   0.00, 1015.3,    0.1, -999.0
17-02-2023, 00:46:06,    196,    1.3,    8.7,   0.00,   0.00, 1015.3,    0.1, -999.0
17-02-2023, 00:46:16,    332,    0.5,    8.8,   0.00,   0.00, 1015.3,    0.2, -999.0
17-02-2023, 00:46:26,    219,    0.6,    8.8,   0.00,   0.00, 1015.3,    0.0, -999.0
17-02-2023, 00:46:36,    215,    3.7,    8.8,   0.00,   0.00, 1015.3,    0.2, -999.0
17-02-2023, 00:46:46,    266,    3.4,    8.8,   0.00,   0.00, 1015.3,    0.2, -999.0